Temp
23 24 25 26 27 26 26 26 27 26 26 24 24 23 23 24 25 25 26 26 26 26 27 27 28 28 28 28 28 28 28 28 28 29 29 29 28 28 28 28 27 27 27 27 28 28 28 29 29 29 29 29 28 28 28 29 29 29 29 30 30 31 31 30 30 30 30 30 31
22 23 24 26 26 26 25 25 26 26 25 24 24 24 24 25 25 25 26 26 27 27 27 28 28 28 28 28 28 28 28 28 28 28 29 28 28 28 28 28 28 28 28 28 28 28 28 28 28 28 28 28 28 28 28 29 29 29 29 29 30 30 30 30 30 30 30 30 31
22 23 23 23 23 23 23 24 24 23 23 23 24 24 24 25 25 26 26 26 27 27 27 27 27 27 27 28 28 28 28 28 28 28 28 28 28 28 28 28 28 28 28 28 28 28 28 28 28 28 28 28 27 27 27 28 29 29 29 29 30 30 30 30 30 30 30 30 30
22 22 22 22 21 21 22 23 23 23 23 24 24 24 25 26 26 26 26 27 27 27 27 27 27 27 28 28 28 28 28 29 29 28 28 28 28 28 28 28 28 28 27 27 27 28 28 28 28 28 27 27 27 27 27 28 29 29 29 29 30 29 29 30 30 30 30 30 30
22 22 22 22 21 22 23 23 23 23 23 24 24 25 25 26 26 26 26 26 26 27 27 26 27 28 28 29 28 28 28 28 29 29 28 28 28 28 28 28 28 27 27 27 27 28 28 28 28 27 27 27 27 27 28 28 28 28 28 29 29 29 29 29 30 30 30 30 30
22 22 22 22 21 22 23 24 23 23 24 25 24 24 25 26 26 26 26 26 26 26 27 27 28 29 29 29 28 28 27 28 28 28 28 28 28 28 28 28 28 27 27 27 27 28 28 28 27 27 27 27 27 28 28 28 28 27 27 27 28 28 29 28 29 29 30 29 29
22 22 22 22 22 23 24 24 23 23 24 25 24 24 24 25 25 25 25 26 26 27 27 28 28 28 28 28 27 27 27 27 27 28 28 27 27 28 28 28 28 27 27 27 27 27 27 27 27 27 27 28 27 28 28 27 27 26 26 26 27 28 28 28 28 29 29 28 28
22 22 22 22 23 24 24 23 23 24 25 25 25 24 25 25 25 25 25 25 26 27 27 28 28 28 28 27 27 27 27 27 27 27 27 27 27 27 27 27 27 27 27 27 27 27 27 27 27 27 26 27 27 27 27 27 26 25 25 25 26 27 27 27 28 28 28 28 28
22 22 22 23 24 24 24 24 24 25 25 25 25 25 25 26 25 25 25 25 26 27 27 27 27 27 27 27 27 27 27 27 27 27 27 27 27 27 27 27 27 27 27 27 27 27 27 27 27 26 26 26 26 26 26 25 25 25 25 25 26 26 27 27 27 27 27 27 27
21 21 22 23 24 24 24 24 25 25 25 25 25 25 25 26 26 25 25 26 27 27 27 27 27 27 27 27 27 27 27 26 26 26 26 27 27 27 27 27 27 27 27 27 27 27 27 26 26 26 26 26 25 25 25 25 24 24 24 25 25 26 26 26 27 27 27 27 27
21 21 23 24 24 24 24 24 25 25 25 24 25 25 25 26 25 25 26 27 26 26 26 27 27 27 26 26 26 26 27 27 26 26 26 26 26 26 26 27 27 26 26 26 27 27 26 26 25 25 25 25 25 24 24 24 24 24 24 25 25 25 25 26 26 27 27 27 28
22 23 24 25 25 25 24 24 24 24 25 24 25 25 25 25 25 26 26 26 26 26 26 27 27 26 26 26 26 27 27 27 26 26 26 26 26 26 26 26 26 26 26 25 26 26 26 25 25 24 24 25 24 24 24 24 24 24 24 24 24 25 25 25 26 27 27 28 28
23 24 25 25 25 25 24 24 24 24 24 24 25 25 25 25 26 26 26 26 26 26 26 27 27 27 26 26 26 26 26 26 26 26 26 26 26 26 26 26 25 25 24 24 24 25 25 24 24 23 23 24 24 24 24 24 24 23 23 24 24 24 25 25 26 26 27 28 28
24 25 25 25 25 25 24 24 24 24 24 24 25 25 25 25 26 27 26 26 26 26 26 27 27 27 27 26 26 26 26 26 26 26 26 26 26 26 26 25 24 23 23 23 24 24 24 24 24 23 23 23 23 24 24 24 24 23 23 24 24 24 25 25 26 27 27 28 29
24 25 25 25 25 24 24 24 24 24 24 24 25 25 25 26 26 27 27 26 26 26 26 26 26 27 27 27 26 26 26 26 25 25 26 26 26 25 25 25 24 23 23 23 23 24 24 24 24 23 23 23 23 23 23 24 24 24 24 24 24 25 25 26 26 27 28 29 30
24 24 25 24 24 24 24 24 24 24 25 25 25 25 26 26 26 26 26 26 26 26 26 26 26 26 26 27 26 26 25 25 25 25 25 25 25 25 24 24 23 22 22 23 23 23 23 23 24 23 23 23 23 23 24 24 24 24 24 25 25 25 26 26 27 28 29 30 30
24 24 24 24 24 24 24 24 24 24 25 25 25 25 25 25 26 26 26 26 26 25 25 25 25 25 25 26 26 26 25 24 25 25 25 25 24 24 23 23 22 22 22 23 23 23 23 23 23 24 24 23 23 24 24 24 24 24 25 25 25 26 27 28 29 29 30 31 31
24 24 24 24 23 23 23 24 24 24 24 24 24 24 25 25 25 25 25 25 25 25 24 24 24 24 24 24 24 25 25 24 24 25 25 24 24 23 23 22 22 22 23 23 23 23 23 23 24 24 24 24 24 24 24 25 25 25 25 26 26 27 28 29 29 30 30 31 31
23 23 23 23 23 23 23 24 24 24 24 25 24 24 24 24 24 24 24 24 25 25 24 24 24 24 23 23 23 24 25 24 24 24 24 23 23 22 22 22 22 23 23 23 23 23 24 24 24 24 24 24 24 24 25 25 25 26 26 27 28 28 29 29 29 29 29 29 30
23 23 23 23 23 23 23 24 24 24 24 25 24 24 23 23 23 23 22 23 25 25 25 24 23 23 23 23 23 23 24 24 24 24 23 23 22 22 22 23 23 23 23 24 24 24 24 24 24 24 24 24 25 25 26 26 27 27 28 29 29 29 28 28 28 28 27 27 28
22 22 23 23 23 23 23 24 24 24 24 24 24 24 23 23 23 22 22 23 24 25 24 23 23 22 22 23 23 23 24 25 24 24 23 23 22 23 23 24 23 24 24 24 24 24 24 24 24 24 25 25 26 26 27 28 29 29 29 29 29 28 28 28 27 27 26 26 27
22 22 23 23 23 23 24 24 24 24 24 24 24 24 24 23 22 22 22 23 23 23 23 22 22 22 22 23 23 23 24 25 24 23 23 23 23 23 24 24 24 24 24 24 24 24 25 25 25 26 26 27 28 29 30 30 30 30 29 29 29 29 29 28 28 27 27 27 28
22 22 23 23 23 23 24 24 24 24 24 24 24 24 23 23 22 22 22 22 22 22 22 22 22 22 23 23 24 24 24 24 23 23 23 23 23 24 24 24 24 24 24 24 25 26 26 27 27 28 28 29 29 30 30 30 30 30 29 29 29 30 29 28 28 28 28 28 29
22 22 23 24 23 22 22 23 23 24 24 24 24 24 24 23 22 22 21 21 21 21 21 21 22 22 23 24 24 24 24 24 23 23 23 23 24 24 24 24 25 25 25 25 27 29 30 29 29 29 29 29 29 29 29 29 29 29 29 29 30 30 29 28 28 29 29 30 30
22 22 23 23 23 22 21 21 22 23 23 23 24 24 24 24 22 22 21 21 21 21 21 21 22 23 24 25 25 25 24 24 23 23 23 23 23 24 24 25 25 25 26 27 32 35 35 33 31 29 28 28 29 29 29 28 28 29 29 29 29 29 28 27 27 28 29 30 30
23 23 23 23 23 22 21 21 22 23 23 24 24 24 24 24 23 22 21 21 21 21 21 21 22 24 26 26 25 25 24 24 24 23 23 23 23 24 24 25 25 25 26 30 34 37 37 37 35 32 30 28 28 28 28 28 28 28 28 28 28 28 27 27 26 26 27 29 30
23 23 23 24 23 22 21 21 22 23 23 24 24 24 24 24 23 22 21 21 21 21 21 22 23 26 27 26 25 25 24 24 24 24 23 23 23 24 24 25 25 25 27 32 36 38 38 37 36 35 32 29 28 28 28 27 27 27 27 27 27 26 26 25 26 26 27 27 29
23 23 24 24 23 22 22 22 23 23 24 24 24 24 24 24 22 22 22 22 22 22 22 23 25 25 26 25 25 25 24 24 24 24 24 24 24 24 25 25 25 26 30 35 37 38 38 37 36 35 34 31 29 28 28 27 27 27 26 26 26 25 25 25 26 26 26 27 28
23 24 24 24 23 23 23 23 23 23 24 24 25 25 25 24 23 22 22 22 22 22 23 24 25 25 25 24 25 25 25 24 25 25 25 24 25 25 25 26 26 28 32 37 38 38 37 37 36 35 34 32 30 28 28 28 28 27 27 26 26 26 25 25 25 26 26 26 28
23 24 24 24 23 23 23 23 24 24 24 25 25 25 25 23 23 22 22 22 22 23 24 24 24 24 24 24 25 25 25 25 25 25 25 24 25 25 26 27 26 28 32 37 38 37 37 36 36 35 34 33 30 28 28 28 28 28 27 27 26 25 25 25 25 25 25 26 27
24 24 24 24 24 23 23 23 24 24 25 25 25 24 23 23 22 22 22 22 23 24 25 25 24 23 23 24 24 25 25 25 25 25 25 24 25 25 26 26 26 29 32 37 37 37 36 36 35 35 34 33 30 28 27 28 27 27 27 26 25 24 24 23 23 24 24 25 26
23 24 24 24 24 24 24 24 24 24 25 25 23 23 23 22 22 22 22 23 24 24 24 24 23 23 23 23 24 24 25 25 25 25 25 25 25 25 25 27 27 29 33 36 37 37 36 35 35 34 34 33 30 28 27 27 27 27 26 25 24 24 23 23 23 23 23 24 25
24 24 24 24 24 24 24 24 24 25 25 24 23 22 22 22 22 22 23 24 25 24 23 23 23 23 23 23 23 24 25 25 25 25 25 25 25 25 26 27 26 30 34 36 37 37 36 35 35 34 33 32 29 28 27 27 27 26 26 25 25 24 24 24 23 23 23 23 25
24 24 24 24 25 25 24 25 24 24 24 23 22 22 22 22 21 22 23 25 25 25 24 24 23 23 23 23 23 24 25 25 24 24 24 25 25 25 26 26 26 30 35 36 37 37 36 35 34 33 32 31 28 26 26 26 26 26 26 26 25 25 25 24 23 23 23 23 25
24 24 24 25 25 25 24 25 24 24 23 22 22 22 22 21 21 22 23 25 26 25 24 24 24 24 24 24 23 24 24 23 23 23 24 25 25 25 25 26 26 31 35 36 37 37 36 35 34 33 31 29 26 25 25 25 25 25 25 25 26 25 25 25 24 23 23 23 25
24 24 25 25 24 24 24 24 23 23 22 22 21 21 21 21 21 22 23 26 25 24 23 23 24 23 23 23 23 23 23 23 23 23 24 25 24 24 24 25 26 30 35 36 37 37 37 36 35 33 31 27 24 23 23 24 24 24 25 25 25 25 25 24 24 23 23 23 25
25 25 25 25 24 24 24 24 23 22 22 21 21 21 21 21 21 22 24 26 24 23 23 23 23 23 23 23 22 22 22 23 23 23 24 25 24 24 24 24 25 28 33 36 37 37 37 36 35 33 30 25 23 22 22 22 22 23 23 24 24 24 24 24 23 23 22 23 26
25 25 25 25 25 25 24 23 22 22 21 21 21 21 21 21 22 23 24 26 24 23 22 23 22 22 22 23 23 22 22 22 23 23 23 23 24 25 25 24 24 27 32 36 37 37 37 36 35 33 30 25 23 22 22 21 21 21 21 22 23 22 22 23 23 23 23 23 28
25 25 25 25 25 25 24 23 22 21 21 21 21 21 21 22 23 24 25 26 24 23 23 22 22 22 23 24 23 22 21 22 22 23 23 23 24 26 27 25 25 27 31 36 37 37 37 36 35 34 31 26 23 22 22 21 20 19 20 21 22 22 22 23 23 24 23 23 29
26 26 26 26 25 25 24 23 22 21 21 21 21 21 22 22 24 25 25 25 24 23 23 22 22 22 23 25 23 21 20 21 21 22 23 23 25 27 28 25 25 27 30 35 36 37 37 36 36 34 31 26 23 22 22 21 20 19 19 20 21 22 22 23 24 24 24 23 26
26 26 26 26 25 25 24 23 22 21 21 21 21 22 23 24 24 24 24 24 24 23 23 23 22 22 22 24 22 21 20 20 21 21 22 23 24 25 26 24 25 26 28 32 35 36 37 37 36 35 32 27 24 23 22 21 20 18 18 19 20 21 22 24 25 25 24 23 23
MSLP
1034.87 1034.75 1034.55 1034.31 1034.09 1033.93 1033.77 1033.59 1033.39 1033.25 1033.11 1032.99 1032.81 1032.61 1032.43 1032.21 1031.93 1031.69 1031.47 1031.25 1031.03 1030.81 1030.59 1030.37 1030.15 1029.93 1029.71 1029.53 1029.31 1029.05 1028.81 1028.61 1028.43 1028.25 1028.05 1027.87 1027.75 1027.55 1027.37 1027.17 1027.05 1026.89 1026.71 1026.49 1026.27 1025.99 1025.75 1025.49 1025.27 1025.03 1024.81 1024.61 1024.39 1024.21 1024.03 1023.81 1023.53 1023.17 1022.83 1022.53 1022.25 1021.97 1021.75 1021.59 1021.37 1021.11 1020.89 1020.71 1020.53
1034.97 1034.81 1034.61 1034.39 1034.25 1034.09 1033.87 1033.61 1033.47 1033.31 1033.17 1033.05 1032.87 1032.65 1032.43 1032.21 1031.97 1031.71 1031.47 1031.27 1031.09 1030.87 1030.61 1030.37 1030.11 1029.89 1029.69 1029.43 1029.17 1028.93 1028.69 1028.43 1028.25 1028.05 1027.89 1027.75 1027.59 1027.43 1027.25 1027.05 1026.87 1026.71 1026.53 1026.31 1026.11 1025.89 1025.65 1025.43 1025.21 1024.99 1024.71 1024.49 1024.27 1024.09 1023.89 1023.69 1023.39 1023.05 1022.75 1022.43 1022.17 1021.97 1021.75 1021.53 1021.27 1021.03 1020.77 1020.53 1020.33
1034.99 1034.81 1034.65 1034.47 1034.33 1034.17 1033.97 1033.69 1033.53 1033.37 1033.25 1033.05 1032.83 1032.65 1032.43 1032.21 1031.99 1031.75 1031.49 1031.31 1031.05 1030.83 1030.61 1030.37 1030.09 1029.83 1029.59 1029.27 1028.99 1028.77 1028.55 1028.31 1028.11 1027.93 1027.75 1027.61 1027.43 1027.27 1027.09 1026.89 1026.71 1026.53 1026.33 1026.15 1025.99 1025.81 1025.59 1025.37 1025.15 1024.87 1024.59 1024.33 1024.15 1023.97 1023.77 1023.49 1023.27 1022.97 1022.69 1022.39 1022.17 1021.97 1021.71 1021.47 1021.17 1020.93 1020.71 1020.43 1020.17
1035.03 1034.87 1034.69 1034.53 1034.33 1034.17 1033.99 1033.77 1033.59 1033.39 1033.21 1032.99 1032.81 1032.61 1032.39 1032.21 1031.99 1031.75 1031.49 1031.27 1031.03 1030.81 1030.55 1030.33 1030.03 1029.71 1029.39 1029.09 1028.81 1028.55 1028.37 1028.21 1027.99 1027.81 1027.65 1027.47 1027.31 1027.11 1026.93 1026.75 1026.55 1026.33 1026.15 1025.99 1025.83 1025.65 1025.43 1025.25 1025.03 1024.75 1024.47 1024.25 1024.05 1023.83 1023.59 1023.33 1023.09 1022.87 1022.61 1022.39 1022.17 1021.97 1021.71 1021.43 1021.15 1020.89 1020.65 1020.37 1020.09
1035.03 1034.89 1034.75 1034.55 1034.37 1034.21 1034.03 1033.83 1033.61 1033.39 1033.17 1032.97 1032.77 1032.55 1032.37 1032.17 1031.97 1031.71 1031.47 1031.21 1030.97 1030.75 1030.49 1030.27 1029.93 1029.59 1029.25 1028.93 1028.61 1028.39 1028.25 1028.11 1027.93 1027.75 1027.55 1027.39 1027.17 1026.97 1026.77 1026.59 1026.39 1026.17 1025.99 1025.83 1025.61 1025.43 1025.25 1025.05 1024.81 1024.55 1024.31 1024.11 1023.87 1023.65 1023.43 1023.25 1023.05 1022.83 1022.59 1022.39 1022.15 1021.89 1021.65 1021.37 1021.09 1020.83 1020.59 1020.31 1020.03
1035.03 1034.89 1034.75 1034.59 1034.39 1034.21 1034.03 1033.83 1033.61 1033.39 1033.15 1032.93 1032.75 1032.53 1032.33 1032.15 1031.89 1031.69 1031.47 1031.17 1030.89 1030.65 1030.37 1030.09 1029.77 1029.43 1029.09 1028.77 1028.53 1028.33 1028.17 1028.03 1027.83 1027.69 1027.49 1027.31 1027.05 1026.83 1026.61 1026.43 1026.21 1025.99 1025.77 1025.59 1025.39 1025.25 1025.05 1024.89 1024.61 1024.37 1024.15 1023.97 1023.71 1023.49 1023.33 1023.21 1023.03 1022.77 1022.53 1022.31 1022.05 1021.83 1021.59 1021.31 1020.99 1020.75 1020.49 1020.21 1019.93
1035.11 1034.93 1034.75 1034.55 1034.37 1034.17 1033.99 1033.81 1033.59 1033.37 1033.11 1032.83 1032.65 1032.49 1032.31 1032.09 1031.87 1031.61 1031.39 1031.15 1030.83 1030.53 1030.21 1029.89 1029.61 1029.31 1028.99 1028.71 1028.47 1028.27 1028.11 1027.99 1027.81 1027.65 1027.43 1027.17 1026.93 1026.69 1026.47 1026.21 1025.99 1025.77 1025.59 1025.37 1025.21 1025.03 1024.87 1024.69 1024.47 1024.21 1023.99 1023.75 1023.53 1023.37 1023.21 1023.09 1022.93 1022.71 1022.47 1022.17 1021.93 1021.69 1021.47 1021.17 1020.89 1020.65 1020.37 1020.09 1019.83
1035.11 1034.97 1034.77 1034.59 1034.37 1034.15 1033.97 1033.77 1033.55 1033.31 1033.05 1032.83 1032.65 1032.47 1032.27 1032.03 1031.77 1031.53 1031.31 1031.05 1030.77 1030.43 1030.11 1029.83 1029.55 1029.31 1028.99 1028.71 1028.47 1028.27 1028.11 1027.93 1027.77 1027.53 1027.31 1027.05 1026.81 1026.55 1026.31 1026.05 1025.81 1025.59 1025.39 1025.25 1025.05 1024.87 1024.69 1024.49 1024.27 1024.09 1023.87 1023.65 1023.43 1023.21 1023.09 1022.97 1022.83 1022.61 1022.33 1022.03 1021.77 1021.49 1021.27 1021.03 1020.77 1020.53 1020.25 1019.97 1019.71
1035.05 1034.87 1034.71 1034.53 1034.33 1034.11 1033.97 1033.75 1033.53 1033.31 1033.05 1032.83 1032.65 1032.47 1032.25 1031.97 1031.71 1031.47 1031.25 1030.93 1030.61 1030.33 1030.09 1029.81 1029.53 1029.25 1028.99 1028.75 1028.53 1028.33 1028.11 1027.89 1027.69 1027.43 1027.17 1026.93 1026.65 1026.37 1026.11 1025.87 1025.61 1025.43 1025.25 1025.09 1024.89 1024.71 1024.53 1024.33 1024.11 1023.89 1023.71 1023.49 1023.27 1023.09 1022.93 1022.81 1022.65 1022.39 1022.15 1021.89 1021.59 1021.31 1021.05 1020.87 1020.61 1020.37 1020.11 1019.83 1019.55
1035.03 1034.83 1034.61 1034.43 1034.25 1034.09 1033.89 1033.69 1033.49 1033.27 1033.05 1032.81 1032.61 1032.39 1032.15 1031.87 1031.65 1031.43 1031.17 1030.87 1030.55 1030.31 1030.05 1029.77 1029.49 1029.25 1028.99 1028.75 1028.55 1028.33 1028.11 1027.87 1027.59 1027.31 1027.05 1026.81 1026.53 1026.25 1025.99 1025.75 1025.49 1025.27 1025.09 1024.89 1024.75 1024.55 1024.33 1024.15 1023.93 1023.71 1023.55 1023.39 1023.17 1022.97 1022.77 1022.59 1022.43 1022.17 1021.93 1021.65 1021.39 1021.11 1020.87 1020.61 1020.39 1020.15 1019.93 1019.61 1019.33
1034.99 1034.81 1034.59 1034.37 1034.17 1033.99 1033.81 1033.61 1033.39 1033.21 1032.99 1032.77 1032.53 1032.31 1032.05 1031.81 1031.59 1031.33 1031.09 1030.81 1030.53 1030.27 1030.03 1029.75 1029.47 1029.21 1028.99 1028.77 1028.55 1028.31 1028.05 1027.77 1027.49 1027.21 1026.93 1026.69 1026.43 1026.15 1025.89 1025.65 1025.37 1025.15 1024.97 1024.77 1024.61 1024.39 1024.15 1023.89 1023.69 1023.49 1023.33 1023.17 1023.03 1022.81 1022.59 1022.37 1022.17 1021.93 1021.69 1021.47 1021.25 1020.99 1020.69 1020.37 1020.11 1019.93 1019.69 1019.39 1019.09
1034.97 1034.71 1034.49 1034.31 1034.11 1033.93 1033.75 1033.55 1033.31 1033.11 1032.89 1032.69 1032.43 1032.21 1031.97 1031.75 1031.49 1031.25 1030.97 1030.71 1030.47 1030.17 1029.93 1029.71 1029.47 1029.25 1028.99 1028.75 1028.49 1028.25 1027.97 1027.71 1027.43 1027.15 1026.87 1026.59 1026.31 1026.03 1025.75 1025.47 1025.25 1025.03 1024.81 1024.61 1024.47 1024.27 1024.03 1023.75 1023.53 1023.27 1023.05 1022.93 1022.81 1022.59 1022.37 1022.15 1021.93 1021.71 1021.47 1021.25 1021.05 1020.81 1020.53 1020.17 1019.89 1019.69 1019.47 1019.17 1018.89
1034.89 1034.65 1034.43 1034.25 1034.09 1033.87 1033.69 1033.49 1033.25 1033.03 1032.81 1032.59 1032.37 1032.11 1031.87 1031.65 1031.39 1031.15 1030.87 1030.65 1030.39 1030.11 1029.89 1029.65 1029.43 1029.21 1028.97 1028.71 1028.47 1028.17 1027.89 1027.61 1027.33 1027.05 1026.77 1026.49 1026.17 1025.89 1025.59 1025.31 1025.09 1024.89 1024.69 1024.47 1024.31 1024.11 1023.87 1023.59 1023.31 1023.05 1022.81 1022.61 1022.49 1022.33 1022.15 1021.97 1021.75 1021.53 1021.27 1021.03 1020.81 1020.55 1020.31 1019.99 1019.71 1019.47 1019.25 1018.99 1018.75
1034.83 1034.65 1034.47 1034.25 1034.03 1033.83 1033.61 1033.39 1033.17 1032.97 1032.75 1032.53 1032.31 1032.09 1031.83 1031.59 1031.31 1031.05 1030.83 1030.59 1030.33 1030.09 1029.87 1029.61 1029.37 1029.11 1028.89 1028.69 1028.39 1028.11 1027.83 1027.55 1027.27 1026.99 1026.69 1026.37 1026.05 1025.75 1025.47 1025.17 1024.97 1024.75 1024.53 1024.31 1024.09 1023.89 1023.65 1023.37 1023.09 1022.81 1022.55 1022.33 1022.15 1021.99 1021.87 1021.75 1021.55 1021.33 1021.09 1020.83 1020.59 1020.33 1020.05 1019.81 1019.53 1019.31 1019.05 1018.81 1018.53
1034.81 1034.61 1034.43 1034.21 1034.03 1033.81 1033.59 1033.39 1033.15 1032.93 1032.71 1032.49 1032.31 1032.05 1031.77 1031.53 1031.27 1031.03 1030.81 1030.55 1030.31 1030.05 1029.81 1029.55 1029.31 1029.05 1028.83 1028.59 1028.31 1028.03 1027.75 1027.43 1027.15 1026.87 1026.53 1026.21 1025.89 1025.61 1025.33 1025.05 1024.81 1024.55 1024.31 1024.09 1023.81 1023.59 1023.37 1023.09 1022.81 1022.53 1022.31 1022.05 1021.83 1021.65 1021.53 1021.39 1021.25 1021.05 1020.83 1020.59 1020.37 1020.11 1019.87 1019.59 1019.33 1019.11 1018.89 1018.61 1018.33
1034.77 1034.61 1034.43 1034.21 1034.03 1033.81 1033.59 1033.37 1033.15 1032.93 1032.71 1032.49 1032.27 1032.03 1031.77 1031.49 1031.27 1031.03 1030.77 1030.49 1030.25 1029.99 1029.71 1029.49 1029.27 1029.03 1028.77 1028.49 1028.25 1027.97 1027.65 1027.37 1027.05 1026.75 1026.43 1026.09 1025.75 1025.47 1025.21 1024.97 1024.65 1024.33 1024.09 1023.81 1023.49 1023.21 1022.97 1022.75 1022.53 1022.25 1021.99 1021.77 1021.53 1021.31 1021.15 1020.99 1020.81 1020.65 1020.47 1020.27 1020.09 1019.87 1019.61 1019.37 1019.15 1018.93 1018.71 1018.47 1018.21
1034.81 1034.65 1034.47 1034.27 1034.05 1033.83 1033.61 1033.37 1033.15 1032.93 1032.71 1032.53 1032.25 1032.03 1031.77 1031.53 1031.27 1031.03 1030.75 1030.49 1030.21 1029.93 1029.69 1029.47 1029.25 1028.99 1028.71 1028.43 1028.15 1027.87 1027.59 1027.27 1026.99 1026.65 1026.31 1025.97 1025.65 1025.37 1025.09 1024.77 1024.49 1024.17 1023.83 1023.53 1023.17 1022.83 1022.53 1022.31 1022.11 1021.89 1021.69 1021.47 1021.25 1021.03 1020.81 1020.59 1020.39 1020.21 1020.09 1019.93 1019.75 1019.55 1019.37 1019.17 1018.99 1018.81 1018.59 1018.39 1018.21
1034.87 1034.71 1034.53 1034.31 1034.09 1033.87 1033.61 1033.39 1033.15 1032.93 1032.71 1032.49 1032.25 1032.03 1031.81 1031.55 1031.31 1030.99 1030.71 1030.47 1030.17 1029.93 1029.65 1029.39 1029.17 1028.93 1028.69 1028.39 1028.11 1027.81 1027.49 1027.17 1026.87 1026.53 1026.17 1025.87 1025.55 1025.25 1024.93 1024.61 1024.31 1023.97 1023.61 1023.25 1022.89 1022.53 1022.17 1021.89 1021.61 1021.43 1021.25 1021.09 1020.89 1020.71 1020.49 1020.25 1020.03 1019.87 1019.75 1019.59 1019.39 1019.25 1019.09 1018.99 1018.87 1018.71 1018.55 1018.37 1018.17
1034.97 1034.77 1034.55 1034.33 1034.15 1033.87 1033.61 1033.39 1033.15 1032.93 1032.71 1032.47 1032.25 1031.99 1031.75 1031.53 1031.25 1030.97 1030.69 1030.39 1030.11 1029.87 1029.61 1029.37 1029.11 1028.83 1028.59 1028.33 1028.03 1027.71 1027.39 1027.11 1026.77 1026.39 1026.09 1025.77 1025.47 1025.15 1024.81 1024.47 1024.11 1023.77 1023.39 1023.03 1022.65 1022.27 1021.89 1021.55 1021.27 1021.03 1020.83 1020.69 1020.53 1020.31 1020.11 1019.89 1019.71 1019.55 1019.39 1019.27 1019.15 1019.05 1018.97 1018.87 1018.81 1018.65 1018.49 1018.33 1018.15
1035.03 1034.81 1034.59 1034.37 1034.15 1033.87 1033.61 1033.39 1033.15 1032.89 1032.65 1032.39 1032.17 1031.93 1031.69 1031.43 1031.15 1030.89 1030.65 1030.37 1030.05 1029.81 1029.55 1029.31 1029.03 1028.77 1028.49 1028.17 1027.89 1027.59 1027.31 1026.99 1026.69 1026.31 1025.97 1025.69 1025.37 1025.03 1024.65 1024.31 1023.93 1023.53 1023.15 1022.77 1022.37 1021.93 1021.53 1021.15 1020.87 1020.65 1020.49 1020.33 1020.15 1019.89 1019.71 1019.55 1019.39 1019.25 1019.11 1019.05 1018.97 1018.93 1018.89 1018.81 1018.75 1018.59 1018.47 1018.31 1018.15
1035.09 1034.87 1034.65 1034.39 1034.15 1033.87 1033.61 1033.37 1033.11 1032.87 1032.61 1032.37 1032.11 1031.87 1031.59 1031.33 1031.09 1030.83 1030.59 1030.31 1029.99 1029.75 1029.49 1029.25 1028.97 1028.69 1028.39 1028.09 1027.77 1027.49 1027.17 1026.87 1026.55 1026.25 1025.89 1025.59 1025.27 1024.89 1024.55 1024.15 1023.75 1023.31 1022.87 1022.39 1021.93 1021.43 1021.03 1020.71 1020.43 1020.25 1020.09 1019.97 1019.75 1019.55 1019.43 1019.27 1019.11 1018.99 1018.93 1018.93 1018.89 1018.87 1018.83 1018.75 1018.65 1018.55 1018.43 1018.27 1018.15
1035.11 1034.89 1034.65 1034.37 1034.11 1033.83 1033.55 1033.31 1033.05 1032.81 1032.55 1032.31 1032.05 1031.77 1031.53 1031.27 1030.99 1030.75 1030.49 1030.17 1029.93 1029.69 1029.43 1029.17 1028.89 1028.61 1028.33 1028.03 1027.75 1027.39 1027.09 1026.75 1026.47 1026.17 1025.89 1025.53 1025.17 1024.77 1024.39 1023.97 1023.53 1023.03 1022.53 1021.99 1021.43 1020.93 1020.49 1020.17 1019.97 1019.81 1019.69 1019.55 1019.37 1019.21 1019.15 1019.09 1019.03 1018.97 1018.93 1018.89 1018.83 1018.81 1018.77 1018.75 1018.65 1018.55 1018.43 1018.31 1018.15
1035.11 1034.87 1034.61 1034.33 1034.05 1033.77 1033.49 1033.27 1033.03 1032.75 1032.47 1032.25 1031.99 1031.75 1031.47 1031.21 1030.93 1030.69 1030.39 1030.11 1029.83 1029.55 1029.31 1029.05 1028.81 1028.53 1028.25 1027.93 1027.65 1027.33 1027.03 1026.71 1026.39 1026.09 1025.77 1025.47 1025.05 1024.65 1024.25 1023.77 1023.27 1022.75 1022.21 1021.71 1021.11 1020.49 1019.99 1019.77 1019.61 1019.53 1019.47 1019.37 1019.27 1019.21 1019.17 1019.15 1019.09 1018.99 1018.89 1018.89 1018.87 1018.83 1018.83 1018.83 1018.75 1018.61 1018.49 1018.37 1018.21
1035.11 1034.83 1034.59 1034.27 1033.97 1033.71 1033.47 1033.25 1032.99 1032.71 1032.43 1032.21 1031.97 1031.71 1031.43 1031.17 1030.87 1030.59 1030.27 1029.99 1029.71 1029.47 1029.21 1028.97 1028.75 1028.47 1028.17 1027.83 1027.53 1027.27 1026.99 1026.69 1026.33 1025.99 1025.65 1025.31 1024.93 1024.53 1024.09 1023.59 1023.05 1022.53 1022.09 1021.61 1020.87 1020.11 1019.69 1019.71 1019.75 1019.69 1019.59 1019.53 1019.47 1019.47 1019.43 1019.33 1019.21 1019.05 1018.99 1019.03 1019.03 1018.97 1018.93 1018.93 1018.87 1018.75 1018.59 1018.43 1018.25
1035.05 1034.81 1034.53 1034.17 1033.89 1033.65 1033.39 1033.17 1032.93 1032.69 1032.43 1032.21 1031.97 1031.69 1031.43 1031.11 1030.81 1030.53 1030.25 1029.93 1029.61 1029.31 1029.09 1028.87 1028.69 1028.37 1028.05 1027.75 1027.47 1027.17 1026.93 1026.65 1026.31 1025.97 1025.55 1025.17 1024.77 1024.37 1023.89 1023.39 1022.89 1022.47 1022.05 1021.55 1020.55 1019.81 1019.55 1019.75 1019.89 1019.93 1019.89 1019.83 1019.77 1019.71 1019.61 1019.53 1019.37 1019.27 1019.27 1019.31 1019.25 1019.17 1019.09 1019.03 1018.93 1018.83 1018.69 1018.53 1018.33
1034.97 1034.71 1034.43 1034.11 1033.83 1033.59 1033.33 1033.15 1032.93 1032.69 1032.43 1032.17 1031.93 1031.65 1031.37 1031.05 1030.77 1030.49 1030.17 1029.87 1029.53 1029.25 1028.99 1028.77 1028.59 1028.27 1027.97 1027.71 1027.43 1027.15 1026.89 1026.59 1026.25 1025.93 1025.55 1025.15 1024.75 1024.31 1023.81 1023.33 1022.87 1022.49 1022.09 1021.43 1020.49 1019.81 1019.59 1019.75 1019.97 1020.11 1020.17 1020.11 1020.03 1019.89 1019.83 1019.75 1019.61 1019.59 1019.59 1019.59 1019.53 1019.43 1019.33 1019.17 1019.05 1018.89 1018.71 1018.55 1018.37
1034.89 1034.61 1034.37 1034.05 1033.77 1033.55 1033.31 1033.11 1032.89 1032.65 1032.39 1032.15 1031.89 1031.59 1031.27 1030.99 1030.71 1030.47 1030.15 1029.83 1029.47 1029.15 1028.87 1028.69 1028.49 1028.25 1027.99 1027.71 1027.43 1027.17 1026.87 1026.55 1026.21 1025.89 1025.55 1025.17 1024.77 1024.31 1023.81 1023.33 1022.93 1022.59 1022.11 1021.37 1020.47 1019.99 1019.93 1020.05 1020.17 1020.31 1020.37 1020.39 1020.31 1020.21 1020.15 1020.09 1019.97 1019.93 1019.93 1019.89 1019.83 1019.77 1019.65 1019.49 1019.31 1019.09 1018.83 1018.59 1018.37
1034.83 1034.55 1034.27 1033.99 1033.71 1033.49 1033.27 1033.09 1032.83 1032.61 1032.37 1032.11 1031.83 1031.53 1031.21 1030.93 1030.69 1030.43 1030.11 1029.77 1029.39 1029.09 1028.81 1028.61 1028.39 1028.27 1028.09 1027.81 1027.53 1027.21 1026.89 1026.59 1026.21 1025.89 1025.55 1025.21 1024.81 1024.37 1023.87 1023.39 1023.05 1022.65 1022.03 1021.21 1020.59 1020.37 1020.43 1020.53 1020.55 1020.61 1020.69 1020.71 1020.65 1020.55 1020.47 1020.39 1020.33 1020.33 1020.33 1020.31 1020.25 1020.15 1020.03 1019.87 1019.69 1019.43 1019.15 1018.83 1018.53
1034.81 1034.49 1034.21 1033.97 1033.71 1033.49 1033.25 1033.03 1032.81 1032.59 1032.33 1032.09 1031.77 1031.49 1031.25 1030.97 1030.69 1030.39 1030.09 1029.75 1029.39 1029.09 1028.83 1028.61 1028.43 1028.31 1028.15 1027.89 1027.59 1027.25 1026.89 1026.59 1026.25 1025.93 1025.59 1025.27 1024.83 1024.39 1023.93 1023.49 1023.17 1022.77 1022.03 1021.11 1020.77 1020.81 1020.89 1020.93 1020.97 1020.97 1020.99 1021.03 1021.03 1020.93 1020.77 1020.69 1020.65 1020.61 1020.61 1020.59 1020.55 1020.49 1020.37 1020.21 1020.05 1019.83 1019.55 1019.25 1018.93
1034.75 1034.43 1034.17 1033.93 1033.71 1033.49 1033.25 1033.03 1032.77 1032.55 1032.31 1032.03 1031.75 1031.49 1031.25 1030.99 1030.71 1030.43 1030.11 1029.81 1029.47 1029.15 1028.87 1028.69 1028.53 1028.39 1028.21 1027.99 1027.65 1027.31 1026.97 1026.61 1026.31 1025.99 1025.69 1025.37 1024.97 1024.55 1024.09 1023.55 1023.27 1022.93 1022.31 1021.43 1021.15 1021.21 1021.31 1021.33 1021.33 1021.33 1021.33 1021.37 1021.33 1021.25 1021.11 1020.99 1020.89 1020.87 1020.83 1020.83 1020.81 1020.75 1020.61 1020.49 1020.33 1020.11 1019.87 1019.59 1019.25
1034.69 1034.39 1034.15 1033.89 1033.69 1033.47 1033.21 1032.99 1032.75 1032.53 1032.27 1032.03 1031.77 1031.55 1031.31 1031.05 1030.81 1030.49 1030.17 1029.87 1029.49 1029.15 1028.87 1028.69 1028.53 1028.39 1028.21 1027.99 1027.71 1027.39 1027.05 1026.71 1026.37 1026.09 1025.81 1025.49 1025.15 1024.77 1024.27 1023.75 1023.37 1023.05 1022.55 1021.77 1021.53 1021.55 1021.65 1021.69 1021.69 1021.65 1021.61 1021.61 1021.61 1021.59 1021.43 1021.27 1021.17 1021.11 1021.09 1021.05 1020.99 1020.89 1020.77 1020.65 1020.49 1020.31 1020.05 1019.77 1019.47
1034.61 1034.37 1034.11 1033.87 1033.69 1033.47 1033.21 1032.99 1032.75 1032.49 1032.25 1032.03 1031.83 1031.59 1031.33 1031.09 1030.81 1030.55 1030.25 1029.93 1029.55 1029.21 1028.89 1028.69 1028.47 1028.33 1028.17 1027.99 1027.77 1027.49 1027.15 1026.81 1026.53 1026.25 1025.97 1025.65 1025.31 1024.97 1024.49 1023.93 1023.53 1023.17 1022.71 1022.05 1021.77 1021.81 1021.93 1022.03 1022.03 1021.99 1021.97 1021.93 1021.89 1021.83 1021.71 1021.55 1021.43 1021.33 1021.31 1021.21 1021.11 1021.03 1020.87 1020.75 1020.59 1020.39 1020.21 1019.93 1019.61
1034.61 1034.33 1034.09 1033.87 1033.65 1033.43 1033.21 1032.99 1032.75 1032.53 1032.31 1032.09 1031.87 1031.65 1031.39 1031.15 1030.87 1030.59 1030.27 1029.93 1029.59 1029.33 1029.09 1028.81 1028.59 1028.37 1028.21 1028.05 1027.87 1027.59 1027.27 1026.93 1026.71 1026.47 1026.15 1025.81 1025.47 1025.11 1024.71 1024.17 1023.77 1023.33 1022.83 1022.31 1021.97 1021.97 1022.11 1022.27 1022.33 1022.33 1022.33 1022.25 1022.21 1022.11 1021.97 1021.83 1021.69 1021.59 1021.47 1021.31 1021.21 1021.11 1020.99 1020.83 1020.71 1020.55 1020.33 1020.09 1019.77
1034.59 1034.33 1034.09 1033.89 1033.65 1033.47 1033.25 1032.99 1032.77 1032.55 1032.37 1032.17 1031.97 1031.71 1031.47 1031.21 1030.97 1030.65 1030.31 1029.97 1029.69 1029.43 1029.21 1028.97 1028.71 1028.47 1028.27 1028.11 1027.97 1027.71 1027.39 1027.15 1026.87 1026.61 1026.33 1026.03 1025.69 1025.31 1024.89 1024.47 1024.09 1023.55 1022.99 1022.55 1022.11 1022.09 1022.27 1022.43 1022.55 1022.61 1022.65 1022.61 1022.59 1022.47 1022.27 1022.11 1021.97 1021.83 1021.71 1021.55 1021.39 1021.27 1021.11 1020.99 1020.87 1020.75 1020.53 1020.25 1019.97
1034.55 1034.33 1034.11 1033.89 1033.69 1033.49 1033.27 1033.03 1032.81 1032.61 1032.43 1032.25 1032.03 1031.77 1031.55 1031.31 1031.05 1030.77 1030.47 1030.05 1029.75 1029.53 1029.27 1029.03 1028.75 1028.53 1028.31 1028.11 1027.97 1027.77 1027.53 1027.31 1027.05 1026.77 1026.47 1026.17 1025.83 1025.49 1025.11 1024.71 1024.31 1023.75 1023.21 1022.81 1022.33 1022.25 1022.39 1022.55 1022.71 1022.83 1022.93 1022.97 1022.93 1022.83 1022.69 1022.47 1022.31 1022.15 1022.03 1021.87 1021.69 1021.53 1021.37 1021.21 1021.09 1020.93 1020.75 1020.43 1020.09
1034.55 1034.33 1034.11 1033.93 1033.71 1033.53 1033.31 1033.05 1032.87 1032.69 1032.49 1032.31 1032.09 1031.83 1031.61 1031.37 1031.11 1030.87 1030.55 1030.15 1029.83 1029.59 1029.33 1029.05 1028.81 1028.59 1028.37 1028.17 1027.97 1027.81 1027.61 1027.43 1027.17 1026.89 1026.61 1026.31 1025.97 1025.69 1025.33 1024.97 1024.55 1023.97 1023.37 1022.93 1022.59 1022.47 1022.53 1022.65 1022.83 1022.99 1023.09 1023.15 1023.17 1023.11 1022.99 1022.83 1022.71 1022.53 1022.33 1022.15 1021.99 1021.83 1021.69 1021.49 1021.37 1021.21 1020.99 1020.71 1020.27
1034.55 1034.33 1034.11 1033.93 1033.75 1033.55 1033.33 1033.11 1032.93 1032.75 1032.55 1032.37 1032.17 1031.97 1031.71 1031.47 1031.17 1030.93 1030.59 1030.25 1029.99 1029.71 1029.43 1029.17 1028.93 1028.75 1028.59 1028.37 1028.15 1027.97 1027.81 1027.55 1027.31 1027.03 1026.75 1026.43 1026.11 1025.83 1025.53 1025.17 1024.81 1024.27 1023.65 1023.09 1022.83 1022.75 1022.71 1022.77 1022.97 1023.11 1023.25 1023.31 1023.31 1023.27 1023.25 1023.11 1023.03 1022.83 1022.65 1022.49 1022.31 1022.17 1022.03 1021.81 1021.61 1021.43 1021.25 1020.93 1020.47
1034.55 1034.33 1034.15 1033.97 1033.77 1033.59 1033.39 1033.17 1033.03 1032.83 1032.65 1032.47 1032.27 1032.03 1031.81 1031.55 1031.27 1030.99 1030.69 1030.33 1030.09 1029.83 1029.59 1029.31 1029.11 1028.97 1028.77 1028.55 1028.33 1028.15 1027.93 1027.69 1027.43 1027.17 1026.89 1026.65 1026.33 1025.99 1025.71 1025.39 1025.05 1024.61 1024.05 1023.43 1023.15 1022.99 1022.89 1022.89 1023.03 1023.21 1023.37 1023.47 1023.47 1023.39 1023.37 1023.31 1023.21 1023.09 1022.89 1022.75 1022.59 1022.39 1022.21 1022.05 1021.83 1021.65 1021.47 1021.17 1020.65
1034.55 1034.33 1034.11 1033.97 1033.77 1033.61 1033.43 1033.25 1033.09 1032.93 1032.75 1032.55 1032.33 1032.09 1031.83 1031.59 1031.33 1031.05 1030.75 1030.43 1030.17 1029.97 1029.71 1029.49 1029.31 1029.15 1028.97 1028.69 1028.47 1028.27 1028.05 1027.81 1027.59 1027.33 1027.09 1026.83 1026.55 1026.21 1025.89 1025.69 1025.33 1024.93 1024.43 1023.83 1023.43 1023.21 1023.09 1023.05 1023.11 1023.31 1023.49 1023.61 1023.59 1023.53 1023.47 1023.43 1023.37 1023.25 1023.05 1022.87 1022.71 1022.53 1022.33 1022.17 1021.99 1021.83 1021.65 1021.37 1020.93
1034.53 1034.33 1034.11 1033.97 1033.81 1033.61 1033.47 1033.27 1033.15 1032.99 1032.81 1032.59 1032.39 1032.15 1031.89 1031.65 1031.39 1031.11 1030.81 1030.49 1030.25 1030.03 1029.81 1029.61 1029.43 1029.31 1029.11 1028.83 1028.61 1028.43 1028.25 1027.97 1027.71 1027.49 1027.27 1027.03 1026.77 1026.43 1026.11 1025.89 1025.55 1025.17 1024.75 1024.17 1023.75 1023.47 1023.31 1023.21 1023.21 1023.33 1023.55 1023.75 1023.71 1023.65 1023.59 1023.55 1023.47 1023.33 1023.21 1023.03 1022.83 1022.61 1022.43 1022.27 1022.11 1021.97 1021.81 1021.55 1021.25
1034.53 1034.31 1034.15 1033.97 1033.81 1033.61 1033.47 1033.31 1033.17 1033.03 1032.81 1032.61 1032.43 1032.21 1031.97 1031.71 1031.47 1031.15 1030.83 1030.53 1030.27 1030.05 1029.89 1029.71 1029.55 1029.43 1029.25 1029.03 1028.77 1028.59 1028.37 1028.15 1027.89 1027.69 1027.43 1027.17 1026.97 1026.69 1026.39 1026.15 1025.77 1025.43 1025.05 1024.59 1024.11 1023.77 1023.55 1023.37 1023.25 1023.31 1023.49 1023.71 1023.77 1023.75 1023.69 1023.61 1023.53 1023.47 1023.37 1023.21 1023.03 1022.81 1022.59 1022.39 1022.21 1022.09 1021.97 1021.77 1021.53
Wind_Speed
7 7 7 8 8 8 7 7 8 8 7 7 7 7 7 8 8 8 8 8 8 8 8 8 9 10 11 14 14 14 13 12 12 13 14 15 14 13 13 12 11 11 12 13 13 13 12 12 11 9 8 8 9 9 9 9 11 12 12 11 10 9 10 11 11 12 13 14 11
8 8 8 9 9 8 7 7 8 8 7 7 7 7 7 7 8 8 8 8 8 8 9 9 10 11 13 15 15 14 13 12 12 13 13 14 14 14 13 12 11 12 13 14 13 12 11 12 11 10 9 8 9 9 9 9 11 11 12 12 10 9 9 10 11 12 13 13 11
8 8 8 8 8 8 7 8 8 8 8 8 7 7 7 7 7 8 8 8 9 10 9 9 11 12 14 15 14 13 12 12 12 13 13 12 13 14 13 12 13 13 13 13 12 12 12 12 11 10 9 8 9 9 9 10 11 11 11 11 10 9 8 9 10 10 10 10 11
8 9 9 9 9 9 8 8 9 9 9 8 7 7 7 7 8 8 9 10 11 10 10 10 11 12 13 14 14 13 12 12 13 13 13 13 13 14 14 14 14 13 12 12 12 13 13 13 11 9 9 9 10 10 9 9 10 10 9 9 9 9 9 9 9 9 9 9 10
9 9 9 9 9 9 9 9 10 10 9 8 7 7 8 8 8 8 9 10 10 10 11 12 12 12 13 14 14 14 13 12 13 13 13 13 14 14 14 15 14 13 12 12 12 13 13 13 10 9 8 9 8 9 9 10 10 10 9 9 9 9 9 9 9 9 9 9 9
9 9 9 8 9 9 9 10 10 10 9 8 8 8 9 8 9 9 10 10 11 12 13 13 13 13 14 15 14 13 12 11 11 12 13 14 14 14 15 15 15 14 13 12 13 13 13 12 10 8 8 8 8 9 10 10 10 10 10 10 9 9 9 10 9 9 9 10 11
9 10 10 9 9 10 10 11 10 10 9 9 9 10 11 11 11 12 12 12 11 12 12 12 13 14 15 15 13 12 11 11 12 13 14 14 14 15 15 15 15 14 13 13 13 12 12 11 9 9 9 9 8 9 10 10 10 11 11 11 10 10 9 10 9 9 10 12 14
9 9 9 9 10 11 12 12 11 10 10 9 10 12 13 13 14 13 13 12 11 11 11 11 13 15 16 14 13 12 12 14 14 14 14 14 15 15 16 16 15 15 14 13 13 13 12 11 9 8 9 8 8 9 10 12 12 13 13 13 12 10 9 9 9 9 11 13 15
9 9 9 9 10 11 12 12 12 12 11 11 11 12 13 14 14 13 12 12 12 12 12 12 14 15 16 14 13 13 13 14 14 14 14 14 15 16 15 15 15 14 14 13 13 14 13 11 9 9 9 8 9 10 11 13 14 14 14 13 12 11 11 11 11 12 12 13 14
9 9 9 9 11 11 12 12 12 12 12 12 12 13 13 15 14 12 11 11 12 12 13 13 14 14 15 14 14 14 14 14 14 14 14 15 15 16 15 14 14 14 13 13 13 14 13 11 10 10 10 10 11 12 13 14 15 15 14 11 11 13 14 13 14 14 13 13 14
9 9 10 10 12 12 12 12 11 11 11 11 12 12 13 13 12 12 12 12 13 13 13 13 14 14 14 13 13 14 14 14 14 14 15 15 15 15 15 15 14 14 14 14 13 13 12 11 12 13 13 12 12 13 13 14 14 15 14 13 13 14 15 15 15 13 13 12 13
10 10 11 11 12 12 12 11 11 10 11 11 12 12 12 11 12 13 13 14 14 13 13 13 13 13 13 12 13 13 14 14 15 15 15 15 15 15 15 15 15 15 14 14 13 12 11 12 13 14 15 15 12 11 12 13 14 15 15 15 14 14 15 15 15 13 11 12 13
11 11 12 12 12 12 12 11 10 10 10 11 12 11 11 11 12 13 14 14 13 12 12 12 13 13 12 12 13 13 14 14 15 15 15 15 15 15 15 14 14 14 14 14 13 12 12 13 14 15 15 15 13 12 12 13 14 14 15 15 15 15 15 15 15 14 13 13 13
11 12 12 12 12 12 11 11 10 9 10 11 11 11 11 11 12 13 13 13 13 12 12 12 12 12 12 13 14 14 14 14 15 15 16 16 15 15 15 14 14 14 14 13 13 14 14 15 15 16 16 16 14 14 13 13 13 13 14 14 15 15 15 15 14 14 14 13 13
12 12 12 13 13 12 11 11 9 9 10 11 11 11 11 11 12 12 12 12 12 12 11 11 11 12 13 14 14 15 15 14 15 15 16 16 16 16 16 15 15 15 14 14 14 14 15 15 16 16 15 15 15 15 14 13 13 13 13 13 14 14 14 14 14 13 13 12 11
13 13 13 13 13 12 11 11 9 9 10 11 11 12 11 11 11 12 12 13 12 11 11 12 12 12 13 14 15 15 14 14 14 15 15 16 16 16 16 16 16 16 16 16 16 15 15 15 15 15 15 15 15 15 15 14 14 14 13 13 13 14 14 14 13 12 11 10 8
13 13 13 13 13 13 12 11 10 10 10 11 12 12 11 11 11 11 12 13 12 12 12 13 12 12 12 13 14 13 13 13 13 14 15 15 16 16 16 16 16 16 17 17 17 17 16 16 15 14 14 15 15 15 15 15 14 13 13 13 13 13 13 12 11 10 8 7 7
14 14 14 13 14 13 13 13 12 11 12 12 12 11 11 11 11 11 12 13 13 13 13 13 13 13 13 13 13 13 12 13 13 14 15 15 15 16 16 16 16 17 17 17 17 18 18 17 17 16 15 14 14 14 14 14 14 13 13 12 12 12 11 10 8 7 6 6 6
14 14 14 13 14 13 13 13 13 12 12 12 11 11 11 11 11 11 12 12 13 14 14 14 13 13 13 14 13 13 13 13 14 14 15 15 15 15 16 17 17 17 17 17 18 18 18 18 18 17 16 15 15 15 14 14 13 12 12 11 10 9 8 7 6 5 5 5 5
14 14 13 13 13 13 13 13 12 12 12 11 11 11 11 11 11 12 12 12 14 14 14 14 14 13 14 14 14 14 13 12 13 14 15 15 15 16 16 17 17 17 17 17 17 18 18 18 18 18 17 16 16 15 14 13 11 10 9 8 6 5 5 4 4 4 4 5 5
13 13 13 13 12 12 12 12 12 12 12 12 12 12 12 12 11 11 12 12 14 14 14 14 14 14 14 14 14 14 13 12 13 14 14 15 15 16 17 17 17 17 17 17 18 18 19 19 18 17 16 15 15 13 12 9 8 6 4 3 3 3 3 3 4 4 5 6 6
13 12 12 12 12 12 12 12 11 11 11 12 12 12 12 12 12 12 12 12 13 13 13 13 13 14 14 14 14 14 13 13 13 14 14 14 15 16 16 16 17 17 17 18 19 19 19 17 15 14 12 11 9 6 4 3 3 3 3 3 3 4 4 5 5 6 6 6 6
12 12 11 11 11 12 12 12 11 12 12 12 12 12 12 12 12 12 12 12 12 13 13 12 12 13 13 13 13 13 13 14 14 14 15 15 15 16 16 16 16 17 17 17 18 17 13 10 8 7 5 4 5 6 7 6 6 6 6 7 7 7 7 7 7 7 7 7 7
11 11 11 10 11 11 11 11 11 12 12 12 12 13 13 13 12 12 12 12 13 13 12 12 12 12 12 12 12 13 13 14 15 15 16 16 16 16 16 16 16 16 16 17 15 10 6 6 6 7 8 9 9 9 9 8 9 10 10 10 10 9 9 8 8 8 8 8 8
11 11 11 11 11 11 11 11 11 12 12 13 13 13 13 13 13 12 12 13 13 13 13 12 12 12 12 12 12 13 13 14 15 15 16 17 17 17 16 15 15 15 15 17 16 18 22 18 14 11 10 9 9 9 9 10 12 13 13 12 12 12 11 10 10 9 9 8 8
11 11 12 12 12 11 11 11 12 12 13 13 13 13 13 13 12 12 12 13 13 13 13 12 12 12 13 13 13 14 14 13 14 15 16 16 17 17 17 15 14 14 15 19 18 24 28 26 22 17 13 9 9 9 10 11 13 14 14 14 13 13 13 12 12 11 10 9 9
12 12 12 12 12 12 12 11 12 12 13 13 13 13 13 13 12 12 12 13 14 13 13 11 11 12 13 13 14 15 14 14 14 14 15 15 16 17 17 16 14 14 15 19 22 27 29 28 26 23 18 12 11 10 10 11 12 13 13 13 13 13 13 13 13 13 13 11 11
12 12 12 13 13 12 12 12 12 13 13 13 13 13 13 12 12 12 13 13 14 13 12 11 11 11 11 11 13 15 15 15 14 14 14 15 16 17 17 16 15 17 18 20 25 29 29 28 27 25 21 16 11 10 10 10 11 11 11 11 11 12 12 12 12 13 13 14 13
12 12 13 13 13 13 12 12 13 13 13 13 13 13 13 12 12 13 13 14 14 13 12 10 10 10 11 12 13 14 15 15 14 13 14 15 16 17 17 17 17 19 21 26 28 29 29 28 27 25 23 19 12 9 8 9 9 9 9 9 10 11 11 11 11 12 13 13 13
12 13 13 13 13 12 12 13 12 12 12 12 12 12 13 12 13 13 13 14 14 13 12 11 11 12 13 13 14 14 14 14 13 13 14 15 17 17 18 19 17 18 21 28 28 29 29 28 27 25 24 21 15 10 8 8 8 9 9 9 10 11 11 11 12 13 13 13 12
12 13 13 13 13 12 12 12 12 12 11 11 12 12 12 12 13 13 13 12 12 13 14 14 14 14 14 13 13 14 14 14 13 14 14 15 16 17 18 19 17 18 20 28 27 28 28 28 27 26 24 21 15 11 9 9 9 9 9 9 10 10 10 10 10 12 14 14 13
12 12 12 13 12 12 12 11 11 12 12 12 12 12 12 13 12 12 12 12 13 14 15 16 16 15 15 14 14 14 14 14 14 14 15 15 15 16 17 18 17 18 21 28 27 28 28 28 27 26 24 22 16 12 10 10 9 9 9 10 11 11 11 10 10 12 14 15 14
12 12 12 13 12 12 11 12 12 12 13 12 12 12 12 12 12 12 12 13 13 14 15 15 15 15 14 13 13 14 14 14 14 14 15 15 15 16 16 16 15 18 23 29 27 28 28 28 26 25 24 21 15 12 11 10 9 9 9 10 11 12 13 13 13 13 14 15 14
12 13 12 12 12 12 12 12 12 12 13 12 12 12 12 12 12 13 13 14 13 13 13 13 13 13 12 12 11 12 14 13 13 13 13 14 14 15 16 15 14 18 25 30 28 28 28 27 26 25 22 19 13 11 11 12 10 10 11 12 12 13 13 14 13 14 15 15 14
12 12 12 12 12 12 12 12 12 12 12 12 13 13 13 12 12 12 13 14 14 13 12 11 11 11 11 11 11 12 13 13 12 12 13 13 14 14 15 16 15 20 26 30 28 27 27 27 26 24 21 16 11 10 10 11 11 12 12 13 13 14 14 14 13 13 14 15 15
12 12 12 12 11 12 12 13 12 12 12 12 13 13 12 12 11 11 12 14 14 13 12 12 12 12 12 11 11 11 12 12 12 12 13 13 13 13 14 16 16 21 25 29 28 27 27 27 26 23 19 13 9 8 9 9 9 10 12 12 13 13 14 13 12 12 13 14 15
12 12 12 11 11 12 12 12 12 12 12 12 12 12 12 11 11 11 11 13 12 12 12 11 11 12 12 12 10 10 10 12 12 12 13 14 13 13 13 15 16 19 23 28 27 27 26 26 26 22 17 11 8 7 8 7 7 8 9 10 10 11 11 10 10 11 12 14 17
11 11 11 11 11 12 12 12 12 12 12 12 11 11 10 10 10 10 11 13 11 11 11 10 10 11 11 12 11 11 11 11 12 12 13 13 13 13 14 14 14 16 20 26 27 26 26 26 25 22 17 10 8 7 7 7 7 7 7 8 8 9 9 8 8 9 11 15 20
11 11 11 11 11 12 12 12 11 11 11 11 10 10 10 9 10 10 11 11 10 9 9 9 9 10 11 12 11 10 11 11 12 12 12 12 13 15 15 13 13 15 19 25 26 26 26 25 24 22 18 11 8 7 7 7 7 7 7 7 7 8 8 7 7 8 10 14 21
11 11 11 11 11 11 11 11 11 10 10 10 10 10 10 10 11 11 11 10 9 8 8 8 9 10 10 12 10 10 10 11 11 12 12 12 13 16 16 13 12 14 18 23 26 26 26 25 24 22 17 10 8 7 7 7 7 7 7 7 7 7 7 8 8 8 9 11 16
11 11 11 11 11 11 11 11 10 10 9 9 9 10 10 11 11 10 10 9 9 8 7 7 9 10 10 11 9 9 10 10 11 11 12 12 12 14 14 12 12 13 15 20 24 26 26 25 24 22 18 11 8 7 7 7 7 8 8 8 7 7 7 8 9 9 9 10 11
Wind_Direction
333 332 332 333 334 333 331 328 328 329 330 328 324 322 320 318 316 315 315 315 314 314 314 313 314 313 312 311 309 307 307 309 312 315 317 318 316 314 312 310 310 310 310 311 311 309 309 311 313 313 312 310 308 307 305 302 299 296 293 293 296 300 304 305 301 299 298 296 292
333 332 332 333 334 332 329 327 328 329 328 324 321 319 318 318 316 315 315 315 314 313 313 311 311 310 308 306 304 302 303 305 310 314 316 317 315 313 310 307 307 308 311 312 312 312 312 313 313 310 307 305 304 303 301 298 295 294 294 298 301 304 305 301 299 298 298 296 294
335 334 334 333 332 330 328 327 328 326 323 320 319 319 318 318 316 315 314 314 313 312 311 310 309 307 304 302 299 299 300 304 309 313 316 317 315 312 310 306 306 307 309 310 311 311 311 312 309 306 304 302 303 301 299 295 295 295 298 303 305 305 302 299 299 298 298 296 294
336 335 334 332 330 328 327 327 326 323 321 320 319 319 319 319 318 316 314 313 312 312 311 309 306 304 302 300 299 298 300 304 310 314 317 317 315 312 309 307 306 306 306 306 307 308 309 310 306 303 301 300 299 297 296 296 298 300 302 305 304 302 300 298 298 297 296 294 294
337 335 333 331 329 327 326 326 324 322 320 320 320 321 322 321 319 317 316 315 315 313 310 307 304 303 303 302 301 301 302 306 313 317 318 317 315 312 311 309 306 304 303 302 304 306 307 308 305 302 299 298 297 296 296 298 300 301 302 302 301 299 298 296 296 295 294 293 293
334 332 330 328 327 328 329 329 325 322 319 320 321 323 323 323 321 319 318 316 314 311 309 307 306 307 307 307 305 306 308 313 319 320 319 316 315 313 311 309 306 304 301 301 303 305 306 308 305 302 301 299 297 296 297 300 301 301 300 299 298 297 295 293 293 292 291 291 292
331 330 329 328 329 331 333 331 327 323 323 324 326 326 325 323 321 319 317 315 314 312 312 312 313 313 312 310 310 313 319 324 323 321 318 315 314 312 311 309 307 304 302 302 304 306 307 308 305 304 303 302 299 299 299 301 300 299 298 296 296 294 292 290 290 290 290 290 291
329 328 328 328 332 334 335 332 329 328 329 331 330 328 326 324 323 321 318 316 315 316 316 317 316 315 314 314 318 323 327 327 323 320 317 314 312 311 310 309 308 307 306 307 308 310 310 309 306 304 302 301 300 299 300 300 298 295 294 293 292 291 290 288 288 288 289 289 289
329 328 327 329 334 336 336 334 333 332 332 332 329 327 326 325 324 322 319 317 317 318 318 317 317 317 318 320 325 327 327 324 320 317 314 312 311 311 310 310 310 310 310 312 312 312 311 308 305 302 301 300 299 299 298 298 295 293 291 290 290 290 290 289 289 289 288 288 287
328 327 328 332 336 336 335 334 334 333 332 329 328 326 324 325 323 320 317 316 317 318 318 317 318 320 322 326 327 326 324 320 317 314 313 311 311 310 310 310 310 311 312 314 314 313 311 307 303 301 300 299 298 296 295 294 293 291 290 289 290 290 291 289 289 288 287 286 284
326 327 330 334 336 335 334 334 334 332 330 328 327 325 323 323 320 318 317 318 318 319 319 318 321 323 325 327 325 323 321 319 317 315 314 312 311 309 309 309 310 311 312 312 312 311 309 305 302 301 300 298 296 294 293 292 291 290 289 288 289 289 289 289 289 288 287 285 284
328 330 333 335 334 333 333 334 332 330 328 327 326 325 323 322 320 320 320 321 321 320 320 322 324 325 326 325 323 322 320 319 318 316 315 313 311 309 308 308 310 311 311 310 310 308 306 303 301 300 298 297 295 292 291 291 290 290 289 288 288 287 287 287 288 288 287 286 286
330 333 335 335 334 333 333 332 330 328 327 327 327 326 325 324 324 324 325 324 324 323 323 325 326 326 325 324 322 321 320 319 319 317 316 314 311 310 309 309 310 310 309 308 307 306 304 301 299 297 296 296 293 290 289 289 289 288 288 287 287 286 285 286 287 288 287 287 286
333 335 337 336 336 335 334 333 331 329 329 330 329 329 328 327 328 328 329 327 326 325 324 325 326 326 326 324 323 322 320 319 318 316 315 313 312 311 311 310 310 309 307 306 305 304 302 299 297 296 295 294 292 290 288 287 285 284 283 283 283 283 283 284 286 287 288 288 288
338 339 340 339 339 338 336 334 332 332 332 332 332 331 330 330 331 331 330 328 326 325 324 325 325 325 325 324 323 322 320 318 316 315 314 313 313 312 312 311 310 308 306 305 304 302 299 297 296 295 294 293 292 290 288 286 283 280 279 278 279 280 281 282 284 286 288 291 293
342 343 343 343 342 340 338 336 335 335 335 335 334 333 332 332 332 331 331 329 326 325 324 324 324 324 324 324 323 321 319 317 315 315 314 314 314 313 312 311 309 307 306 305 303 301 299 296 294 293 292 291 291 291 290 287 283 280 278 277 277 277 278 280 283 287 291 297 307
347 347 346 345 344 342 340 338 337 337 337 336 335 334 333 332 331 330 330 329 326 324 324 324 324 323 322 322 321 319 317 316 315 314 314 314 314 313 312 310 308 307 306 305 304 302 300 298 295 293 292 291 290 290 289 287 284 282 280 278 277 276 277 280 285 291 298 308 325
349 348 347 346 344 342 340 339 338 338 337 336 335 333 331 329 327 327 326 326 324 324 324 323 323 322 320 319 318 316 316 315 314 313 313 314 313 312 311 309 308 307 306 305 304 302 301 299 297 295 293 291 290 288 287 285 283 281 279 277 276 276 278 282 288 294 303 318 338
350 348 347 345 343 340 339 338 338 337 336 335 332 329 327 324 323 322 322 322 323 323 324 323 322 320 318 317 315 314 314 313 312 312 312 313 312 311 310 310 309 307 306 305 303 301 299 297 295 294 293 292 290 288 285 283 281 278 276 274 274 277 280 285 287 294 306 324 339
349 347 345 342 340 337 335 336 335 334 333 331 329 326 324 321 320 319 319 319 322 323 323 323 321 319 317 315 314 313 313 312 313 313 313 314 313 312 311 311 310 308 306 303 300 297 294 291 290 289 289 289 288 286 284 281 277 273 272 273 276 278 281 286 295 308 322 333 336
346 343 340 338 335 333 332 332 331 330 329 328 326 324 322 320 319 318 318 318 320 322 322 321 319 318 316 315 314 313 313 313 314 314 315 314 314 313 313 312 311 308 304 301 297 293 290 287 286 285 284 283 281 279 279 280 279 279 281 292 297 302 310 325 338 345 346 342 337
342 338 335 333 330 329 329 329 328 327 327 326 325 323 321 320 319 318 317 318 319 320 320 320 318 317 316 314 313 313 313 314 315 315 315 315 315 315 314 313 310 307 304 302 298 295 291 287 284 282 281 280 282 287 301 321 330 345 2 13 14 17 18 15 11 5 357 346 338
337 334 331 329 326 326 326 326 326 326 326 326 325 324 323 321 319 318 318 318 319 319 319 319 318 316 315 313 313 314 315 316 317 317 317 317 317 317 316 315 312 310 309 308 304 301 296 293 296 304 317 341 10 21 24 21 22 29 34 35 34 32 29 22 16 10 3 354 345
333 331 330 328 326 324 324 324 325 326 327 327 327 326 325 323 321 320 320 319 319 319 319 319 318 316 315 314 316 318 319 319 319 319 320 320 320 320 319 317 315 315 315 313 322 344 31 46 28 23 25 31 32 31 29 27 33 37 39 35 31 28 24 18 13 10 7 4 359
332 330 329 328 326 325 324 325 327 328 328 328 328 328 326 324 323 322 321 320 319 319 319 319 319 319 320 322 324 324 323 322 322 322 322 323 323 323 322 320 320 321 321 318 356 40 62 60 51 41 32 28 28 28 29 32 36 38 37 32 26 22 17 12 8 4 3 5 5
333 331 330 329 327 326 327 328 328 329 329 330 330 329 328 325 324 322 321 320 320 320 321 322 323 326 330 332 331 329 327 326 325 325 325 325 325 325 324 323 325 323 326 335 18 44 53 52 49 44 36 26 25 26 29 32 34 35 34 29 25 20 15 10 4 359 356 357 2
333 332 331 329 328 328 329 329 330 331 332 332 332 331 329 327 325 324 323 323 322 322 323 325 328 333 336 336 334 333 331 330 328 327 327 326 326 326 327 327 328 325 331 353 33 45 46 46 45 42 38 30 25 25 28 30 32 32 31 27 22 18 14 9 2 358 354 351 355
333 332 331 330 331 331 332 332 333 334 334 333 333 332 331 329 328 327 327 326 325 326 327 330 335 339 340 338 337 335 334 332 331 330 330 330 329 330 330 331 331 333 344 12 40 46 45 44 43 41 38 33 27 24 26 30 31 31 30 26 21 18 14 10 4 359 354 350 350
332 332 332 332 333 334 335 336 336 336 335 333 334 334 334 334 333 332 331 329 329 329 332 335 339 342 342 340 339 338 336 334 333 333 334 334 334 334 334 335 334 343 2 32 47 48 45 44 43 41 39 36 29 22 20 24 28 30 30 27 23 18 15 11 6 1 356 350 348
333 333 333 334 336 337 338 338 338 337 336 335 337 338 338 337 337 335 333 332 331 332 335 338 341 343 344 342 341 340 339 337 337 338 339 339 339 338 338 338 340 349 8 34 48 49 46 44 43 41 39 36 31 24 17 19 23 26 27 26 22 19 15 11 7 3 358 352 346
334 334 335 337 339 340 340 339 338 339 339 340 341 341 341 340 338 337 335 333 333 335 338 341 343 344 345 345 344 342 340 340 342 343 343 342 342 341 340 339 342 352 10 32 48 50 46 43 42 40 39 36 31 24 17 15 19 22 23 22 19 17 14 10 5 1 357 353 347
335 336 338 341 343 343 342 341 342 343 345 346 345 343 342 341 339 337 335 335 337 339 341 343 344 345 346 347 346 345 344 344 346 346 345 344 343 342 341 342 344 353 10 30 47 50 47 43 41 40 38 35 31 25 18 16 17 17 18 17 15 14 12 9 4 -0 357 353 348
338 340 342 345 346 346 346 346 346 347 348 349 347 344 342 340 339 338 338 338 341 343 343 343 343 344 345 348 348 347 347 347 347 346 345 344 344 344 344 345 344 352 7 27 45 50 47 43 41 40 38 35 30 24 19 18 16 15 14 13 12 11 9 8 4 -0 356 352 348
341 343 346 348 350 350 349 349 349 349 350 350 347 344 343 341 341 340 340 341 343 344 343 341 341 342 344 347 348 349 349 349 347 346 345 344 345 346 348 349 344 352 5 24 41 47 47 44 42 41 39 36 31 24 19 18 17 14 12 11 11 9 7 5 2 359 354 350 347
343 345 347 349 352 352 351 350 349 350 350 349 346 344 342 341 341 340 340 341 343 342 341 339 340 342 345 347 349 351 351 349 347 347 347 347 347 349 350 349 344 351 4 22 37 44 46 44 42 41 40 39 34 27 22 19 17 14 12 11 10 8 6 3 0 357 353 348 345
345 346 348 350 352 352 352 350 350 350 350 348 345 343 341 340 340 340 340 341 341 341 339 339 341 345 347 348 350 352 351 349 349 349 351 352 351 352 353 351 345 351 2 19 33 41 44 44 43 41 41 41 37 31 26 23 19 14 12 11 10 7 4 1 358 356 352 347 344
345 346 348 350 352 353 352 350 350 350 349 347 344 342 340 339 339 339 340 341 341 339 338 339 343 347 349 348 350 350 349 349 351 353 354 355 353 355 356 353 348 350 360 15 29 37 42 45 44 42 41 39 37 34 31 27 21 15 12 11 9 5 2 360 357 355 352 348 347
345 346 348 351 353 353 352 350 350 350 348 345 343 341 339 339 339 339 340 341 340 338 338 339 344 347 348 348 349 349 348 350 354 356 356 356 355 358 360 356 350 351 359 11 24 33 39 45 45 44 42 40 36 34 32 28 22 16 12 11 8 4 1 360 358 356 354 350 351
345 347 349 352 354 353 352 350 350 349 346 343 341 340 339 340 340 340 339 339 337 336 337 339 344 347 348 350 351 350 349 351 355 357 358 357 357 0 2 358 353 354 360 8 19 28 35 42 46 47 46 43 37 34 32 29 22 16 12 10 8 4 2 2 2 359 355 351 352
346 348 350 353 355 354 352 351 349 348 345 343 341 340 340 341 340 338 337 336 336 337 338 340 344 347 350 352 352 351 350 351 354 356 356 356 357 360 1 357 353 355 0 6 15 23 30 37 44 48 49 48 40 35 33 29 23 16 11 8 7 5 4 4 5 3 358 352 351
346 349 351 354 355 354 352 350 349 346 344 342 341 341 341 341 339 337 336 336 337 339 341 343 345 348 351 353 352 352 352 352 353 353 353 354 355 357 358 353 353 355 0 4 12 19 25 31 38 44 49 52 45 37 33 31 24 17 11 4 4 4 4 4 6 5 1 356 350